KD4YQH Weather Reports


time (UTC)temp
C
wind
direction
speed
KPH
gust
KPH
rain 1hr
cm
rain 24hr
cm
rain mn
cm
humidity
%
barometer
mb
20260906052431 3 229 0.0 0.0 0.00 0.03 0.00 95 1009.9
20260906051427 3 229 0.0 0.0 0.00 0.03 0.00 95 1009.9
20260906050420 3 229 0.0 0.0 0.00 0.03 0.00 95 1009.9
20260906045412 3 229 0.0 0.0 0.00 0.03 0.00 94 1009.9
20260906044403 3 229 0.0 0.0 0.00 0.03 0.00 94 1009.9
20260906043351 3 229 0.0 0.0 0.00 0.03 0.00 94 1009.9
20260906042350 3 229 0.0 0.0 0.00 0.03 0.00 94 1009.9
20260906041342 3 229 0.0 0.0 0.00 0.03 0.00 94 1009.9
20260906035327 3 229 0.0 0.0 0.00 0.03 0.03 93 1009.9
20260906034320 3 229 0.0 0.0 0.00 0.03 0.03 93 1009.9
20260906033310 5 229 0.0 0.0 0.00 0.03 0.03 93 1009.9
20260906032305 4 229 0.0 0.0 0.00 0.03 0.03 93 1009.9
20260906031259 3 229 0.0 0.0 0.00 0.03 0.03 92 1009.9
20260906030234 3 229 0.0 0.0 0.00 0.03 0.03 92 1009.9
20260906025228 3 229 0.0 0.0 0.00 0.03 0.03 92 1009.9
20260906024228 4 229 0.0 0.0 0.00 0.03 0.03 91 1009.9
20260906023216 3 229 0.0 0.0 0.00 0.03 0.03 91 1009.9
20260906022214 3 229 0.0 0.0 0.00 0.03 0.03 91 1009.9
20260906021209 5 229 0.0 0.0 0.00 0.03 0.03 90 1009.9
20260906020202 4 229 0.0 0.0 0.00 0.03 0.03 90 1009.9
20260906015155 4 229 0.0 0.0 0.00 0.03 0.03 90 1009.9
20260906014126 5 229 0.0 0.0 0.00 0.03 0.03 89 1009.9
20260906013126 5 229 0.0 0.0 0.00 0.03 0.03 89 1009.9
20260906010118 5 229 0.0 0.0 0.00 0.03 0.03 87 1009.9
20260906005112 5 229 0.0 0.0 0.00 0.03 0.03 86 1009.9
20260906004103 5 229 0.0 0.0 0.00 0.03 0.03 85 1009.9
20260906002039 5 229 0.0 0.0 0.00 0.03 0.03 82 1009.9
20260906001031 6 229 0.0 0.0 0.00 0.03 0.03 81 1009.9
20260906000011 5 229 0.0 0.0 0.00 0.03 0.03 78 1009.9
20260905235010 6 229 0.0 0.0 0.00 0.03 0.03 76 1009.9
20260905234004 7 229 0.0 0.0 0.00 0.03 0.03 74 1009.9
20260905232959 6 229 0.0 0.0 0.00 0.03 0.03 72 1009.9
20260905231957 7 229 0.0 0.0 0.00 0.03 0.03 69 1009.9
20260905230946 7 229 0.0 0.0 0.00 0.03 0.03 64 1009.9
20260905224935 8 229 0.0 0.0 0.00 0.03 0.03 58 1009.9
20260905223928 9 229 0.0 0.0 0.00 0.03 0.03 56 1009.9
20260905222909 9 229 0.0 0.0 0.00 0.03 0.03 54 1009.9
20260905220855 10 223 0.0 1.6 0.00 0.03 0.03 49 1009.9
20260905215855 10 163 0.0 3.2 0.00 0.03 0.03 51 1009.9
20260905213843 10 182 0.0 4.8 0.00 0.03 0.03 48 1009.9
20260905212841 10 199 1.6 6.4 0.00 0.03 0.03 45 1009.9
20260905211833 10 136 4.8 4.8 0.00 0.03 0.03 44 1009.9
20260905205830 10 255 0.0 6.4 0.00 0.03 0.03 45 1009.9
20260905204832 10 253 3.2 6.4 0.00 0.03 0.03 45 1009.9
20260905203832 10 181 0.0 4.8 0.00 0.03 0.03 48 1009.9
20260905202828 10 210 3.2 8.0 0.00 0.03 0.03 46 1009.9
20260905201825 10 113 4.8 8.0 0.00 0.03 0.03 48 1009.9
20260905200822 10 12 3.2 6.4 0.00 0.03 0.03 46 1009.9
20260905195818 10 239 0.0 6.4 0.00 0.03 0.03 48 1009.9
20260905194813 10 143 0.0 8.0 0.00 0.03 0.03 46 1009.9
20260905192758 10 323 0.0 8.0 0.00 0.03 0.03 48 1009.9
20260905191757 9 243 3.2 9.7 0.00 0.03 0.03 48 1009.9
20260905185754 8 296 0.0 3.2 0.00 0.03 0.03 47 1009.9
20260905184753 8 209 0.0 3.2 0.00 0.03 0.03 49 1009.9
20260905183751 8 112 1.6 8.0 0.00 0.03 0.03 49 1009.9
20260905181747 8 253 0.0 9.7 0.00 0.03 0.03 54 1009.9
20260905180748 8 194 4.8 8.0 0.00 0.03 0.03 52 1009.9
20260905174745 8 172 1.6 8.0 0.00 0.03 0.03 56 1009.9
20260905173741 8 191 1.6 6.4 0.00 0.03 0.03 59 1009.9
20260905172735 8 264 3.2 11.3 0.00 0.03 0.03 60 1009.9
20260905171734 8 274 3.2 9.7 0.00 0.03 0.03 61 1009.9
20260905170736 7 202 8.0 9.7 0.00 0.03 0.03 62 1009.9
20260905163733 7 302 0.0 14.5 0.00 0.03 0.03 66 1009.9
20260905162730 5 205 1.6 6.4 0.00 0.03 0.03 68 1009.9
20260905161731 5 209 0.0 8.0 0.00 0.03 0.03 72 1009.9
20260905160730 5 182 1.6 6.4 0.00 0.03 0.03 77 1009.9
20260905155732 3 187 3.2 6.4 0.00 0.03 0.03 79 1009.9
20260905154727 3 219 0.0 8.0 0.00 0.03 0.03 82 1009.9
20260905152718 3 66 0.0 0.0 0.00 0.03 0.03 93 1009.9
20260905151710 3 66 0.0 0.0 0.00 0.03 0.03 96 1009.9
20260905150654 3 66 0.0 0.0 0.00 0.03 0.03 96 1009.9
20260905144640 3 66 0.0 0.0 0.03 0.03 0.03 96 1009.9
20260905143639 4 66 0.0 0.0 0.03 0.03 0.03 97 1009.9
20260905141634 4 66 0.0 1.6 0.03 0.03 0.03 96 1009.9
20260905140631 4 66 0.0 3.2 0.03 0.03 0.03 97 1009.9
20260905135620 4 198 0.0 3.2 0.00 0.00 0.00 97 1009.9
20260905134611 4 170 0.0 0.0 0.00 0.00 0.00 97 1009.9
20260905133605 3 170 0.0 0.0 0.00 0.00 0.00 97 1009.9
20260905132544 3 170 0.0 0.0 0.00 0.00 0.00 98 1009.9
20260905131538 3 170 0.0 0.0 0.00 0.00 0.00 97 1009.9
20260905125527 3 170 0.0 0.0 0.00 0.00 0.00 97 1009.9
20260905124528 3 170 0.0 0.0 0.00 0.00 0.00 97 1009.9
20260905123516 3 170 0.0 0.0 0.00 0.00 0.00 97 1009.9
20260905121503 2 170 0.0 0.0 0.00 0.00 0.00 97 1009.9
20260905120500 2 170 0.0 0.0 0.00 0.00 0.00 97 1009.9
20260905115451 2 170 0.0 0.0 0.00 0.00 0.00 97 1009.9
20260905114442 2 170 0.0 0.0 0.00 0.00 0.00 97 1009.9
20260905113425 3 170 0.0 0.0 0.00 0.03 0.00 97 1009.9
20260905112420 3 170 0.0 0.0 0.00 0.03 0.00 97 1009.9
20260905111412 3 170 0.0 0.0 0.00 0.03 0.00 97 1009.9
20260905110407 3 170 0.0 0.0 0.00 0.03 0.00 97 1009.9
20260905104357 3 170 0.0 0.0 0.00 0.03 0.00 97 1009.9
20260905103349 3 170 0.0 0.0 0.00 0.03 0.00 97 1009.9
20260905102343 3 170 0.0 0.0 0.00 0.03 0.00 97 1009.9
20260905101335 3 170 0.0 0.0 0.00 0.03 0.00 97 1009.9
20260905100328 3 170 0.0 0.0 0.00 0.03 0.00 96 1009.9
20260905095318 3 170 0.0 0.0 0.00 0.03 0.00 97 1009.9
20260905094310 3 170 0.0 0.0 0.00 0.03 0.00 96 1009.9
20260905093303 3 170 0.0 0.0 0.00 0.03 0.00 96 1009.9
20260905092258 3 170 0.0 0.0 0.00 0.03 0.00 96 1009.9
20260905091250 3 170 0.0 0.0 0.00 0.03 0.00 96 1009.9
20260905090242 3 170 0.0 0.0 0.00 0.03 0.00 96 1009.9
20260905085235 3 170 0.0 0.0 0.00 0.03 0.00 96 1009.9
20260905084228 3 170 0.0 0.0 0.00 0.03 0.00 96 1009.9
20260905083219 3 170 0.0 0.0 0.00 0.03 0.00 96 1009.9
20260905082212 3 170 0.0 0.0 0.00 0.03 0.00 96 1009.9
20260905081159 3 170 0.0 0.0 0.00 0.03 0.00 96 1009.9
20260905080147 3 170 0.0 0.0 0.00 0.03 0.00 96 1009.9
20260905075140 3 170 0.0 0.0 0.00 0.03 0.00 96 1009.9
20260905074136 3 170 0.0 0.0 0.00 0.03 0.00 96 1009.9
20260905073133 4 170 0.0 0.0 0.00 0.03 0.00 96 1009.9
20260905072126 3 170 0.0 0.0 0.00 0.03 0.00 96 1009.9
20260905071120 3 170 0.0 0.0 0.00 0.03 0.00 96 1009.9
20260905070113 3 170 0.0 0.0 0.00 0.03 0.00 96 1009.9
20260905065105 3 170 0.0 0.0 0.00 0.03 0.00 96 1009.9
20260905064058 3 170 0.0 0.0 0.00 0.03 0.00 96 1009.9
20260905063051 4 170 0.0 0.0 0.00 0.03 0.00 96 1009.9
20260905061036 4 170 0.0 0.0 0.00 0.03 0.00 96 1009.9
20260905060029 4 170 0.0 0.0 0.00 0.03 0.00 96 1009.9
20260905055014 5 170 0.0 0.0 0.00 0.03 0.00 96 1009.9
20260905054007 5 170 0.0 0.0 0.00 0.03 0.00 96 1009.9
20260905053002 4 170 0.0 0.0 0.00 0.03 0.00 96 1009.9